Regional Weather Roundup
Issued by NWS

Home | Current Version | Previous Version | Text Only | Print | Product List | Glossary Off
Versions: 1 2 3 4 5 6 7 8 9 10 11 12 13 14 15 16 17 18 19 20 21 22 23 24 25 26 27 28 29 30 31 32 33 34 35 36 37 38 39 40 41 42 43 44 45 46 47 48 49 50

000
ASUS43 KDTX 020301
RWRMI
MICHIGAN HOURLY REGIONAL WEATHER ROUNDUP
NATIONAL WEATHER SERVICE DETROIT/PONTIAC MI
1100 PM EDT MON SEP 01 2014

NOTE: "FAIR" INDICATES FEW OR NO CLOUDS BELOW 12,000 FEET WITH NO
SIGNIFICANT WEATHER AND/OR OBSTRUCTION TO VISIBILITY.

MIZ047>049-052>055-059>063-066>070-074>076-081>083-020400-
SOUTHEAST LOWER MICHIGAN

CITY           SKY/WX    TMP DP  RH WIND       PRES   REMARKS
ADRIAN         CLEAR     72  69  90 W5        29.86R
ALMA           MOCLDY    70  66  88 SW3       29.81S
BAD AXE        CLEAR     69  69 100 SW7       29.79R
CARO           PTCLDY    70  69  98 SW6       29.79S FOG
DETROIT CITY   MOCLDY    75  70  84 SW5       29.83S
DETROIT        MOCLDY    75  70  84 SW9       29.84R
FLINT          CLEAR     73  68  84 S7        29.82R
GROSSE ILE     PTCLDY    75  72  88 CALM      29.83R
HILLSDALE      PTCLDY    74  70  88 SW3       29.87R
HOWELL         PTCLDY    71  69  94 SW5       29.83S

CITY           SKY/WX    TMP DP  RH WIND       PRES   REMARKS
JACKSON        MOCLDY    73  68  84 SW6       29.85R
LAMBERTVILLE   PTCLDY    77  70  78 SW5       29.86R
LANSING        PTCLDY    70  64  81 SW7       29.82F
LAPEER         FAIR      70  68  93 SW6       29.82S
MASON          PTCLDY    69  66  91 CALM      29.84R
MONROE         PTCLDY    75  70  83 SW8       29.83R
MT. CLEMENS    PTCLDY    70  70 100 SW5       29.82R
PONTIAC        CLOUDY    71  68  90 SW6       29.83R
PORT HOPE        N/A     71  67  87 VRB6      29.75S
PORT HURON     PTCLDY    68  68 100 S3        29.82S
TRI CITIES     MOCLDY    74  67  78 SW7       29.79S
TROY           MOCLDY    74  71  90 NW7       29.85R
SAGINAW HB     MOCLDY    72  72 100 SW7       29.79S
$$
MIZ043>046-050>051-056>058-064>065-071>073-077>080-020400-
SOUTHWEST LOWER MICHIGAN

CITY           SKY/WX    TMP DP  RH WIND       PRES   REMARKS
BATTLE CREEK   CLEAR     71  65  81 SW7       29.85R
BENTON HARBOR  CLEAR     75  66  73 SW15      29.83R
BIG RAPIDS     PTCLDY    67  67  99 CALM      29.79S
COLDWATER      CLEAR     73  68  87 SW7       29.86R
FREMONT        FAIR      66  65  96 S3        29.79S
HOLLAND        CLOUDY    71  65  81 W5        29.81S
GRAND RAPIDS   LGT RAIN  73  69  87 SW6       29.81S
IONIA          CLOUDY    72  66  80 SW7       29.81S
KALAMAZOO      CLEAR     71  65  81 SW7       29.84S
LUDINGTON      CLEAR     69  67  91 W3        29.78R
MARSHALL       PTCLDY    71  65  82 SW3       29.84S
MOUNT PLEASANT PTCLDY    71  66  85 SW6       29.79S
MUSKEGON       MOCLDY    72  66  81 W10       29.80R
SOUTH HAVEN    PTCLDY    75  68  78 SW13G20   29.82R
$$
MIZ016>042-020400-
NORTHERN LOWER MICHIGAN

CITY           SKY/WX    TMP DP  RH WIND       PRES   REMARKS
ALPENA         CLEAR     67  65  93 SW5       29.74R
BEAVER ISLAND  CLEAR     65  64  94 W7        29.73R
BELLAIRE       PTCLDY    70  64  83 CALM      29.74S
CADILLAC       CLEAR     64  64  99 SW5       29.79S
CHARLEVOIX     CLOUDY    69  66  91 SW12      29.77R
FRANKFORT      CLEAR     69  64  83 W3        29.75S
GAYLORD        PTCLDY    66  64  93 W9        29.77R
GRAYLING       CLEAR     69  68  98 W5        29.78S
HARBOR SPRINGS CLOUDY    69  65  86 SW7       29.74R
HOUGHTON LAKE  CLEAR     69  64  84 SW8       29.78R
MANISTEE       CLEAR     66  63  88 W5        29.77S
OSCODA         CLEAR     67  66  99 SW5       29.74S
PELLSTON       CLOUDY    68  65  90 W9        29.73R
ROGERS CITY    CLEAR     66  64  94 SW6       29.74R
TRAVERSE CITY  PTCLDY    69  64  84 SW3       29.74R
$$
MIZ007>008-015-020400-
EASTERN UPPER MICHIGAN

CITY           SKY/WX    TMP DP  RH WIND       PRES   REMARKS
KINROSS        CLOUDY    64  63  94 W8        29.72R
MACKINAC ISLAN CLOUDY    65  65  97 W9G16     29.73R
NEWBERRY       MOCLDY    60  59  96 SW6       29.71S
S. S. MARIE    CLOUDY    62  60  93 SW3       29.70R
$$
MIZ004>006-011>014-085-020400-
CENTRAL UPPER MICHIGAN

CITY           SKY/WX    TMP DP  RH WIND       PRES   REMARKS
MANISTIQUE     CLEAR     63  60  93 CALM      29.72R
ESCANABA       CLEAR     61  57  88 CALM      29.73R
MENOMINEE      CLEAR     64  59  82 W3        29.74R
SAWYER-GWINN   CLEAR     60  56  85 W5        29.72S
$$
MIZ001>003-009>011-084-020400-
WESTERN UPPER MICHIGAN

CITY           SKY/WX    TMP DP  RH WIND       PRES   REMARKS
IRON MOUNTAIN  CLEAR     57  56  96 CALM      29.73S
HOUGHTON       CLOUDY    63  54  72 W13       29.69R
COPPER HARBOR    N/A     65  55  70 NW6       29.66R
$$

ABBREVIATIONS USED IN REMARKS
   TC - TEMPERATURE IN CELSIUS
  WCI - WIND CHILL INDEX
   HX - HEAT INDEX
  VSB - VISIBILITY



USA.gov is the U.S. government's official web portal to all federal, state and local government web resources and services.